PRAETORIAN SDA_619

Last updated on Sun Jun 21 2026 00:03:46 GMT+0000 (Coordinated Universal Time)

1 65582U 25203T 26170.97861984 .00000100 00000+0 79600-4 0 9992 2 65582 81.3048 8.2022 0008153 177.5525 182.5673 13.83806323 39714
UTC large
Height (km)
Speed (km/s)
/
Latitude / Longitude
Inclination (degrees)
Orbital Period (minutes)
Azimuth
Elevation
Range (km)
Doppler Factor

Next 0 passes for location: London (51.5072 / 0.1276)

No passes found over London.
PRAETORIAN SDA_619